Regional Weather Roundup
Issued by NWS Wakefield, VA

Home | Current Version | Previous Version | Graphics & Text | Print | Product List | Glossary On
Versions: 1 2 3 4 5 6 7 8 9 10 11 12 13 14 15 16 17 18 19 20 21 22 23 24 25 26 27
000
ASUS41 KAKQ 280415
RWRAKQ

REGIONAL WEATHER ROUNDUP
NATIONAL WEATHER SERVICE WAKEFIELD VA
1200 AM EDT THU APR 28 2016

Note: "fair" indicates few or no clouds below 12,000 feet with no
significant weather and/or obstructions to visibility. * = Denotes
station may not report precipitation (e.g., rain,snow,etc.),
thunder or fog.

VAZ042-051-052>054-056-280500-
NORTHERN VIRGINIA

CITY           SKY/WX    TMP DP  RH WIND       PRES   REMARKS
WASH NATIONAL  MOCLDY    54  49  83 S7        29.94F
DULLES         CLOUDY    53  49  86 S5        29.93F
FORT BELVOIR   MOCLDY    51  49  92 CALM      29.93F
QUANTICO       CLOUDY    55  51  86 VRB3      29.94F
FREDERICKSBRG* CLOUDY    55  55  99 CALM      29.93F
STAFFORD*      CLOUDY    53  50  90 CALM      29.97F
WARRENTON      CLOUDY    55  49  78 CALM      29.93F
CULPEPER*      CLOUDY    56  54  91 CALM      29.94F
MANASSAS*      CLOUDY    54  54 100 CALM      29.94F
LEESBURG*      MOCLDY    55  54  94 S5        29.93F
WINCHESTER     CLOUDY    54  52  94 CALM      29.91F FOG
FRONT ROYAL*   CLOUDY    54  52  94 CALM      29.91S
LURAY*         FAIR      54  54 100 NE3       29.91S FOG
$$

VAZ048-049-060>072-079>083-280500-
CENTRAL AND SOUTH CENTRAL VIRGINIA

CITY           SKY/WX    TMP DP  RH WIND       PRES   REMARKS
RICHMOND       CLOUDY    56  55  97 N7        29.91F FOG
CHESTERFIELD*  CLOUDY    57  46  67 NE3       29.93S
PETERSBURG*    CLOUDY    61  56  84 NE6       29.91S
HANOVER        CLOUDY    56  51  84 VRB3      29.94F
TAPPAHANNOCK*  CLOUDY    56  56 100 NE5       29.94S FOG
QUINTON*       CLOUDY    56  56  98 CALM      29.91F
CHARLOTTSVILLE LGT RAIN  57  54  89 NE6       29.92F
GORDONSVILLE*  CLOUDY    55  55 100 CALM      29.92F
ORANGE*        RAIN      55  55 100 NE3       29.95F
LOUISA*        DRIZZLE   59  57  94 CALM      29.92F
BUMPASS*       CLOUDY    54  54  99 CALM      29.92F
FARMVILLE*     CLOUDY    61  61 100 NE5       29.91R
CREWE*         CLOUDY    60  60 100 NE6       29.92R
FORT PICKETT*  NOT AVBL
CHASE CITY*    CLOUDY    63  61  94 NE3       29.89S
CLARKSVILLE*   CLOUDY    64  64 100 N5        29.88S
SOUTH HILL*    CLOUDY    62  62  99 NE6       29.94F
LAWRENCEVILLE* CLOUDY    59  59 100 CALM      29.90R
EMPORIA*       CLOUDY    57  55  94 E3        29.93R
$$

VAZ088>098-280500-
SOUTHEAST VIRGINIA

CITY           SKY/WX    TMP DP  RH WIND       PRES   REMARKS
NORFOLK        CLOUDY    55  52  89 NE7       29.90F
VIRGINIA BEACH CLOUDY    57  51  80 NE8       29.90S
NORFOLK NAVAL  CLOUDY    56  54  93 E8        29.92F
WEST POINT*    CLOUDY    57  55  94 NE3       29.93S
SALUDA*        CLOUDY    55  54  95 E7        29.91F
NEWPORT NEWS   CLOUDY    56  55  97 E9        29.90F
LANGLEY AFB    CLOUDY    56  54  93 E8        29.90F
FORT EUSTIS    CLOUDY    57  56  97 E7        29.89F
WILLIAMSBURG*  CLOUDY    57  55  94 E3        29.91F
HR EXEC AP*    CLOUDY    55  54  94 E3        29.93S
FRANKLIN*      LGT RAIN  56  55  95 E7        29.91S
US460-WAKEFLD  CLOUDY    58  55  90 VRB5      29.90F
$$

VAZ020-022-025-037-045-280500-
WEST CENTRAL AND SOUTHWEST VIRGINIA

CITY           SKY/WX    TMP DP  RH WIND       PRES   REMARKS
STAUNTON*      CLOUDY    60  60 100 CALM      29.92F FOG
WAYNESBORO*    CLOUDY    56  55  96 MISG      29.91F
HOT SPRINGS VA NOT AVBL
LYNCHBURG      CLOUDY    61  59  93 E9        29.92R
DANVILLE       LGT RAIN  66  65  96 NE3       29.87F
SOUTH BOSTON*  CLOUDY    66  64  96 NW3       29.88F
MARTINSVILLE   RAIN      61  61  99 CALM      29.91R
ROANOKE        MOCLDY    65  64  97 SE7       29.91R
BLACKSBURG     FAIR      64  59  85 SE3       29.94S
DUBLIN*        CLOUDY    62  62  98 CALM      29.92F
MARION*        FAIR      63  58  86 CALM      29.95R
HILLSVILLE*    CLOUDY    59  58  99 CALM      29.91F
RICHLANDS*     FAIR      63  39  41 CALM      29.90F
WISE*          FAIR      59  59 100 S5        29.91S
ABINGDON*      MOCLDY    62  61  96 CALM      29.89F
$$

MDZ021>025-VAZ099-100-280500-
SOUTHERN MARYLAND AND THE DELMARVA PENINSULA

CITY           SKY/WX    TMP DP  RH WIND       PRES   REMARKS
PATUXENT RIVER CLOUDY    54  49  83 CALM      29.93F
BAY BRIDGE APT NOT AVBL
LEONARDTOWN    CLOUDY    52  48  87 CALM      29.94F
DOVER          CLOUDY    51  49  94 VRB1      29.93R
GEORGETOWN     CLOUDY    51  45  79 CALM      29.94R
EASTON         CLOUDY   N/A N/A N/A S5        29.97S
CAMBRIDGE        N/A     50  46  87 CALM      29.93F
SALISBURY      CLOUDY    49  46  90 SW3       29.93F
OCEAN CITY     CLOUDY    51  46  83 E3        29.93
WALLOPS ISLAND LGT RAIN  53  49  86 E6        29.94S
ACCOMACK*      CLOUDY   N/A N/A N/A CALM      29.93F
$$

NCZ012>017-030>032-280500-
NORTH CENTRAL AND EASTERN NORTH CAROLINA

CITY           SKY/WX    TMP DP  RH WIND       PRES   REMARKS
ROANOKE RAPIDS RAIN      64  63  94 SE6       29.88R
RALEIGH        TSTM      66  64  94 NE9       29.89R FOG
ELIZABETH CITY LGT RAIN  59  58  96 E7        29.92R
AHOSKIE*       LGT RAIN  64  63  97 S5        29.91R
EDENTON*       DRIZZLE   64  64 100 SE3       29.91R
CURRITUCK*     LGT RAIN  59  59 100 NE3       29.92S
KILL DEVIL HLS CLOUDY    56  55  95 CALM      29.91S
MANTEO         NOT AVBL
CAPE HATTERAS  CLEAR     69  67  93 SW13      29.91R
TARBORO*       CLOUDY    66  65  94 SE3       29.89S
GOLDSBORO      CLEAR     70  63  78 S8        29.85S
WASHINGTON     CLOUDY    67  60  79 E6        29.90F
GREENVILLE     CLOUDY    66  66 100 SE3       29.93R
NEW BERN       CLEAR     69  59  70 SW8       29.90R
WILMINGTON     CLEAR     70  64  81 SW13      29.90F
$$

VAZ048-280500-
ELSEWHERE

CITY           SKY/WX    TMP DP  RH WIND       PRES   REMARKS
HARRISBURG PA  CLOUDY    53  47  79 CALM      29.93S
BALTIMORE      MOCLDY    52  49  89 S3        29.93S
ANNAPOLIS      CLOUDY    53  49  86 S5        29.93S
ANDREWS AFB    FAIR      51  49  91 S2        29.92F
PHILADELPHIA   CLOUDY    51  45  79 W7        29.96R
HENDERSON NC   MOCLDY    65  65 100 SE6       29.88S
GREENSBORO     LGT RAIN  67  66  97 NW12      29.86R
ROCKY MOUNT    CLOUDY    66  66 100 SE5       29.88R
$$

VAZ100-280500-
MARINE

STATION/POSITION TIME  TEMP    WIND        PRES    WAVE   SWELL
                       AIR SEA DIR/SP/G            HT/PER HT/PER
                 (UTC) (F)     (DEG/KT/KT) (MB)    (FT/S) (FT/S)
BRANDYWINE LGT   0300                      1013.5F
CAPE MAY NJ      0300   50 59              1013.1F
LEWES DE         0300      56              1013.4F
15NM E FENWICK I 0350   51 52              1013.4R   4/ 6
OCEAN-CITY-INLET 0300   51 55              1013.2S
WACHAPREAGUE VA  0300   53 63              1013.8R
THOMAS POINT MD  0400   53 58  180/  7/  8 1014.9F
GOOSES REEF MD   0400   54 59  190/  8/  8 1014.6F
COVE POINT MD    0300   53                 1014.3F
SOLOMONS ISLAND  0300   54 61                N/A
BISHOPS HEAD MD  0300   53 62              1013.3R
PINEY POINT MD   0300           90/  5/  6   N/A
POTOMAC MD       0400   54 59  110/  6/  8 1012.4F   1
CAMBRIDGE MD     0300   51 62              1013.1R
LEWISETTA VA     0300   56 62              1013.7R
RAPPAHANNOCK LGT 0300                      1014.0F
STINGRAY PT      0400   55 62   90/  6/ 10 1013.2F   1/ 2
YORK RVR RNG VA  0300   55                 1012.6F
YORKTOWN VA      0300   56 62              1013.0S
JAMESTOWN VA     0400   57 68   70/  4/  8   N/A     1
DOMINION TERM VA 0300   57                 1013.0R
KIPTOPEKE VA     0300      61                N/A
CHES BAY BRIDGE  0300   54 57              1012.4F
CAPE HENRY VA    0300   53                   N/A
CHESAPEAKE LGHT  0300   52      40/ 16/ 17 1013.2F
WILLOUBY STN VA  0300   55                 1014.3R
CAPE HENRY BUOY  0312      57                N/A     4/ 6
CAPE CHARLES BUO 0326      56                N/A     3/ 6   2/11
OFFSHORE WE BUOY 0321      55                N/A     5/ 6   2/11
64NM E OF VA BCH 0350   54 53   40/  8/ 10 1012.0R   4/ 6   3/ 6
DUCK PIER NC     0300   56 63              1012.2F
44100 DUCK FRF   0324      58                N/A     4/ 7
44056 DUCK FRF   0311      56                N/A     4/ 6
OREGON INLET NC  0300      71              1012.9R
HATTERAS NC      0300   70 68              1012.1R
DIAMOND SHLS NC  0350   72 71  220/ 14/ 16 1012.8R   4/ 5   2/ 7
CAPE LOOKOUT NC  0300   69     220/  9/ 13 1012.5S
$$




USA.gov is the U.S. government's official web portal to all federal, state and local government web resources and services.